#timestamp,LO_Frequency,Hit,StdDev 
1636290015.8,286047001.4,P
1636290035.6,286047002.6,Y
1636290055.5,286046998.6,P
1636290075.3,286046999.4,N
1636290095.2,286046997.3,N
1636290115.9,286046996.6,N
1636290135.7,286046998.9,N
1636290155.6,286046998.2,N
1636290175.4,286047001.2,N
1636290195.2,286047000.9,N
1636290215.1,286047000.5,N
1636290216.0,286047000.5,N
1636290235.8,286046998.1,N
1636290255.7,286047000.3,N
1636290275.5,286047000.4,N
1636290295.3,286046998.6,N
1636290315.2,286046998.1,N
1636290335.0,286046998.5,N
1636290335.9,286046998.5,N
1636290355.7,286046998.7,N
1636290375.6,286046998.2,N
1636290395.4,286047000.7,N
1636290415.3,286046999.9,N
1636290435.1,286047000.9,N
1636290436.0,286047000.9,N
1636290455.8,286046998.3,N
1636290475.7,286046996.5,N
1636290495.5,286046996.7,N
1636290515.3,286046999.5,N
1636290535.2,286046999.5,N
1636290555.0,286046998.8,N
1636290555.9,286046998.8,N
1636290575.8,286047000.8,N
1636290595.6,286047001.1,N
1636290615.4,286047000.8,N
1636290635.3,286047000.8,N
1636290655.1,286047001.0,N
1636290675.8,286047000.5,N
1636290695.7,286047000.9,N
1636290715.5,286047000.0,N
1636290735.4,286047000.4,N
1636290755.2,286047002.2,N
1636290775.0,286047002.7,N
1636290775.9,286047002.7,N
1636290795.8,286047002.8,N
1636290815.6,286046999.8,N
1636290835.5,286047002.7,N
1636290855.3,286047000.2,N
1636290875.1,286046999.8,N
1636290895.9,286047002.3,N
1636290915.7,286046999.8,N
1636290935.5,286047000.3,N
1636290955.4,286046999.8,N
1636290975.2,286047000.6,N
1636290995.1,286047000.4,N
1636290996.0,286047000.4,N
1636291015.8,286047002.6,N
1636291035.6,286047002.8,N
1636291055.5,286046999.8,N
1636291075.3,286047001.1,N
1636291095.1,286046998.7,N
1636291115.9,286047001.0,N
1636291135.7,286047001.1,N
1636291155.6,286047000.3,N
1636291175.4,286047000.3,N
1636291195.2,286047001.4,N
1636291215.1,286047004.3,Y
1636291216.0,286047004.3,P
1636291235.8,286046999.7,N
1636291255.7,286047002.3,N
1636291275.5,286047000.6,N
1636291295.3,286047001.2,N
1636291315.2,286047000.3,N
1636291335.0,286047000.9,N
1636291335.9,286047000.9,N
1636291355.7,286046998.4,N
1636291375.6,286046998.6,N
1636291395.4,286046998.1,N
1636291415.3,286047001.0,N
1636291435.1,286047000.3,N
1636291436.0,286047000.3,N
1636291455.8,286046998.1,N
1636291475.7,286046999.9,N
1636291495.5,286047000.9,N
1636291515.3,286046998.6,N
1636291535.2,286046998.7,N
1636291555.0,286046998.5,N
1636291555.9,286046998.5,N
1636291575.8,286046998.4,N
1636291595.6,286046999.4,N
1636291615.4,286047000.7,N
1636291635.3,286046999.8,N
1636291655.1,286047000.4,N
1636291675.9,286047000.3,N
1636291695.7,286046999.9,N
1636291715.5,286047001.0,N
1636291735.4,286047000.0,N
1636291755.2,286047000.2,N
1636291775.1,286047002.7,N
1636291776.0,286047002.7,N
1636291795.8,286047002.4,N
1636291815.6,286047002.1,N
1636291835.5,286047002.6,N
1636291855.3,286047000.1,N
1636291875.1,286047000.7,N
1636291895.9,286047000.4,N
1636291915.7,286047000.3,N
1636291935.6,286047002.3,N
1636291955.4,286047000.2,N
1636291975.2,286046999.8,N
1636291995.1,286047000.3,N
1636291996.0,286047000.3,N
1636292015.8,286047000.5,N
1636292035.6,286046999.9,N
1636292055.5,286047002.4,N
1636292075.3,286047000.2,N
1636292095.2,286047002.1,N
1636292115.9,286047002.1,N
1636292135.7,286047001.5,N
1636292155.6,286047001.6,N
1636292175.4,286047002.8,N
1636292195.2,286047002.1,N
1636292215.1,286047002.2,N
1636292216.0,286047002.2,N
1636292235.8,286047002.1,N
1636292255.7,286047002.6,N
1636292275.5,286047002.2,N
1636292295.3,286047001.9,N
1636292315.2,286047002.2,N
1636292335.0,286047002.1,N
1636292335.9,286047002.1,N
1636292355.8,286047004.0,Y
1636292375.6,286047002.4,P
1636292395.4,286047002.5,P
1636292415.3,286047002.8,P
1636292435.1,286047002.7,Y
1636292455.8,286046998.9,P
1636292475.7,286047001.0,N
1636292495.5,286046998.1,N
1636292515.4,286046998.7,N
1636292535.2,286046997.1,N
1636292555.0,286046997.6,N
1636292555.9,286046997.6,N
1636292575.8,286046997.2,N
1636292595.6,286046996.9,N
1636292615.4,286046996.7,N
1636292635.3,286046999.2,N
1636292655.1,286046996.6,N
1636292675.9,286046997.0,N
1636292695.7,286046996.8,N
1636292715.5,286046997.1,N
1636292735.4,286046996.6,N
1636292755.2,286046996.9,N
1636292775.1,286046996.5,N
1636292776.0,286046996.5,N
1636292795.8,286046997.7,N
1636292815.6,286046999.3,N
1636292835.9,286046997.1,N
1636292855.7,286046998.4,N
1636292875.5,286047001.1,N
1636292895.4,286047001.1,N
1636292915.2,286047000.9,N
1636292935.1,286047001.0,N
1636292936.0,286047001.0,N
1636292955.8,286047000.9,N
1636292975.6,286046998.2,N
1636292995.5,286046998.1,N
1636293015.3,286046996.9,N
1636293035.2,286046999.3,N
1636293055.0,286046999.0,N
1636293055.9,286046999.0,N
1636293075.7,286046998.6,N
1636293095.6,286047000.5,N
1636293115.4,286046999.9,N
1636293135.3,286047000.7,N
1636293155.1,286046998.5,N
1636293156.0,286046998.5,N
1636293175.8,286046998.1,N
1636293195.7,286046998.6,N
1636293215.5,286047000.5,N
1636293235.3,286046999.9,N
1636293255.2,286047002.8,N
1636293275.0,286047000.3,N
1636293275.9,286047000.3,N
1636293295.8,286047000.3,N
1636293315.6,286047001.0,N
1636293335.4,286046998.5,N
1636293355.3,286046998.3,N
1636293375.1,286046998.7,N
1636293395.9,286046999.6,N
1636293415.7,286046999.2,N
1636293435.5,286046999.3,N
1636293455.4,286046998.2,N
1636293475.2,286046999.0,N
1636293495.1,286046998.6,N
1636293496.0,286046998.6,N
1636293515.8,286047000.7,N
1636293535.6,286046998.2,N
1636293555.5,286046998.2,N
1636293575.3,286047001.1,N
1636293595.2,286047000.2,N
